SCP
0 0 -0 -0 -0 -0 -0 -0 -0 -0 -0 -0 -0 -0 -0 0 0 0 0 0 0 0 0 -0 -0 -0 0 0 0 0 0 0 0
0 0 -0 -0 -0 -0 -0 -0 -0 -0 -0 -0 -0 -0 -0 0 0 0 0 0 0 0 0 -0 -0 -0 0 0 -0 0 0 0 0
0 0 0 -0 -0 -0 -0 -0 -0 -0 -0 -0 -0 -0 -0 -0 0 0 0 0 0 0 0 0 -0 -0 -0 0 0 0 -0 0 0
0 0 0 0 -0 -0 -0 -0 0 -0 -0 -0 -0 -0 -0 -0 -0 0 0 0 0 0 0 0 -0 -0 -0 0 0 0 -0 -0 0
0 0 0 0 0 0 0 -0 0 -0 -0 -0 -0 -0 -0 -1 -0 -0 -0 0 0 0 0 0 0 0 -0 0 0 0 -0 -0 0
0 0 0 0 0 0 0 0 0 0 0 -0 -0 0 -0 -0 -0 -0 -0 -0 0 0 0 0 0 0 0 0 0 0 0 -0 -0
0 0 0 0 0 0 0 0 0 0 0 0 0 0 0 -0 -1 -1 -0 -0 0 0 0 0 0 0 0 0 0 0 0 0 0
0 0 0 0 0 0 0 0 0 0 0 0 1 0 0 -0 -0 -0 -0 -0 -0 0 0 0 0 0 0 0 0 0 0 0 0
0 0 0 0 0 0 0 0 0 0 0 0 0 0 -0 -0 0 -0 -0 -0 0 0 0 0 0 0 0 0 0 0 0 0 0
0 -0 -0 -0 0 0 0 0 0 0 0 1 1 0 0 0 0 0 -0 -0 -0 0 0 0 0 0 0 0 0 0 0 0 0
0 0 0 0 0 0 0 0 0 0 0 0 0 0 1 1 1 1 0 0 0 0 0 0 1 1 0 0 0 0 0 0 1
0 0 0 0 0 0 0 0 0 0 0 1 1 1 1 1 1 1 2 2 0 1 2 1 1 1 1 1 1 0 0 0 1
0 0 0 0 0 0 0 0 0 0 0 1 1 2 1 2 2 3 2 2 1 2 3 3 3 2 2 2 2 0 0 0 1
0 0 0 0 0 0 0 0 0 0 1 1 1 1 2 3 3 3 3 4 4 3 4 5 5 5 4 3 2 2 0 0 2
0 0 0 0 0 0 0 0 0 0 1 1 1 2 3 3 3 4 4 3 5 5 7 6 6 7 7 5 3 2 0 0 2
3 3 3 2 2 3 3 1 0 0 0 0 1 1 2 3 4 4 4 4 6 7 7 8 7 8 6 6 5 3 0 0 0
2 3 3 2 3 3 5 5 3 2 2 1 0 1 1 1 2 4 5 6 6 6 6 5 7 7 7 7 3 0 0 0 0
3 2 2 2 2 2 3 3 3 3 4 1 1 1 1 2 2 0 0 0 0 0 0 3 7 8 8 3 1 0 0 0 0
2 1 1 1 1 1 1 0 0 0 0 0 0 0 0 0 0 0 0 0 0 0 0 0 0 0 0 0 0 0 0 0 0
0 1 1 1 1 0 0 0 0 0 0 -0 -0 0 0 0 0 0 0 0 0 0 0 0 0 0 0 0 0 0 0 0 0
Wind_Speed_500mb
78 76 88 97 115 111 110 107 107 107 105 102 103 98 94 86 80 76 67 62 55 56 62 57 49 51 46 38 31 31 32 32 30
68 80 88 103 110 118 117 115 110 112 107 105 103 102 98 94 88 82 74 66 60 61 59 61 55 53 46 39 36 35 34 34 33
67 75 89 97 105 107 118 121 115 111 110 106 102 100 104 101 95 86 76 68 65 63 63 62 66 58 52 46 42 39 40 37 36
73 82 94 102 109 115 110 112 113 112 110 110 110 107 106 105 101 95 88 77 67 67 64 63 69 66 58 55 49 45 47 43 40
78 74 77 88 97 99 95 107 109 111 109 107 109 106 104 106 103 99 95 86 75 70 67 68 69 73 69 61 56 49 49 48 47
62 61 65 71 81 88 95 101 104 106 106 107 107 106 105 106 106 105 100 91 79 78 72 71 74 74 75 69 65 61 56 53 51
59 56 49 56 71 86 94 98 102 101 102 102 104 104 103 103 105 103 97 91 86 81 80 78 81 83 82 77 72 69 63 60 57
50 49 50 49 60 81 91 98 101 100 99 99 99 99 101 105 104 100 95 94 90 82 83 84 84 88 90 89 85 80 75 69 63
48 49 43 39 51 69 88 94 99 105 101 96 93 91 94 100 103 99 97 98 96 91 87 92 92 91 96 98 94 89 84 76 70
63 66 68 66 52 63 78 91 94 101 96 95 94 88 84 91 95 99 98 98 101 102 96 94 98 98 96 100 102 98 87 79 76
83 84 85 75 64 62 71 82 91 94 90 96 92 93 95 93 92 91 95 99 104 107 106 103 102 103 102 99 98 96 91 86 82
73 66 57 56 49 58 67 78 84 91 96 95 96 99 95 94 91 90 92 97 99 106 114 113 110 109 107 105 102 95 88 84 89
58 58 45 42 35 38 54 74 87 86 87 93 96 97 91 90 87 90 93 96 97 101 107 115 114 112 111 108 103 93 84 82 90
54 50 45 40 31 33 41 58 72 85 87 86 84 88 89 88 87 88 88 90 97 101 102 104 111 113 111 111 104 98 88 81 85
37 44 43 38 34 38 40 37 41 49 58 52 67 76 79 80 80 81 90 95 97 96 94 107 104 106 106 108 100 88 83 81 79
34 36 32 30 31 29 29 29 31 38 47 52 52 60 63 66 69 74 78 81 82 87 83 88 87 86 96 101 94 79 72 80 84
34 34 35 31 29 23 20 11 15 27 35 43 45 45 51 50 55 58 58 60 62 66 66 68 72 79 84 78 85 78 71 45 41
46 44 42 37 36 32 29 24 21 17 12 9 14 27 25 26 35 43 47 48 51 47 54 62 67 80 80 78 81 87 78 61 39
49 46 43 42 39 33 30 27 26 24 23 20 13 9 9 12 16 23 32 36 17 35 54 55 67 68 61 41 63 77 77 61 81
47 41 35 32 29 24 21 21 21 23 23 23 19 8 2 7 10 19 34 43 42 36 26 19 25 13 37 6 20 57 41 58 68
Wind_Direction_500mb
219 215 216 218 223 224 228 229 228 230 231 230 230 231 231 229 232 232 233 233 233 229 226 230 232 233 236 236 239 232 231 232 233
219 216 216 222 225 226 228 231 227 230 231 233 233 233 234 232 232 232 234 235 235 231 231 228 230 234 234 234 234 233 229 231 230
225 220 219 222 227 225 228 232 235 231 232 234 233 234 236 235 234 234 235 236 235 234 230 231 229 233 231 233 232 235 230 227 230
221 221 222 225 229 231 227 231 232 235 234 233 235 236 238 237 236 236 236 236 235 235 233 230 229 229 234 235 230 233 231 227 229
235 235 239 234 233 228 219 225 229 233 236 236 238 238 239 240 238 238 238 238 236 236 236 232 232 232 233 231 228 228 229 227 228
237 234 237 233 226 220 223 223 227 232 235 240 240 238 239 240 239 237 239 239 237 236 236 234 232 231 229 228 227 226 228 230 232
251 249 247 240 227 222 225 227 229 233 236 239 239 237 238 239 239 236 237 238 237 236 236 236 233 231 231 230 230 230 231 232 233
242 248 258 252 240 227 225 226 230 234 236 235 236 238 238 241 240 238 235 236 237 237 237 237 237 235 234 235 235 234 233 233 235
240 238 247 263 248 233 225 227 229 232 235 238 234 236 241 241 239 238 237 233 235 235 237 238 239 238 237 239 239 238 238 239 241
242 251 260 262 260 243 234 233 234 231 236 236 234 234 237 238 237 239 238 233 231 234 235 238 239 241 241 241 242 243 242 242 245
251 252 253 254 253 252 246 241 237 239 235 236 237 237 232 233 235 237 238 235 232 233 234 237 240 242 243 244 245 245 245 244 245
243 253 263 241 247 255 238 236 237 236 233 236 238 235 235 235 235 236 237 237 237 234 235 236 238 241 244 245 246 246 246 242 242
244 238 240 248 253 241 237 236 230 241 239 237 237 238 239 240 239 238 239 241 240 238 237 240 243 244 246 248 249 248 244 240 239
240 235 246 235 225 225 224 221 224 235 240 244 250 250 244 240 241 242 245 246 244 242 240 240 243 245 247 249 248 247 240 236 235
222 211 217 219 208 216 224 218 227 234 239 250 247 245 244 243 243 246 244 243 244 242 245 243 240 242 245 249 249 244 237 230 224
179 176 171 174 188 201 214 224 231 236 246 249 250 249 252 253 255 254 252 250 248 244 242 242 242 237 241 247 250 238 234 224 211
147 136 132 132 137 134 131 151 218 241 250 256 261 263 263 265 264 260 254 247 248 249 244 243 243 238 239 236 238 235 215 205 287
120 113 109 106 100 94 84 78 71 57 30 345 278 262 264 255 251 247 240 235 237 234 230 241 254 257 245 228 224 223 199 171 143
109 103 98 92 87 81 73 58 48 39 36 27 13 352 292 259 241 229 228 213 191 212 229 235 227 217 211 196 216 186 191 226 227
95 92 88 84 78 67 48 32 27 19 15 9 10 20 171 184 200 196 198 183 150 125 93 61 43 59 341 216 201 307 290 190 168
Wind_Speed_850mb
78 76 88 97 115 111 110 107 107 107 105 102 103 98 94 86 80 76 67 62 55 56 62 57 49 51 46 38 31 31 32 32 30
68 80 88 103 110 118 117 115 110 112 107 105 103 102 98 94 88 82 74 66 60 61 59 61 55 53 46 39 36 35 34 34 33
67 75 89 97 105 107 118 121 115 111 110 106 102 100 104 101 95 86 76 68 65 63 63 62 66 58 52 46 42 39 40 37 36
73 82 94 102 109 115 110 112 113 112 110 110 110 107 106 105 101 95 88 77 67 67 64 63 69 66 58 55 49 45 47 43 40
78 74 77 88 97 99 95 107 109 111 109 107 109 106 104 106 103 99 95 86 75 70 67 68 69 73 69 61 56 49 49 48 47
62 61 65 71 81 88 95 101 104 106 106 107 107 106 105 106 106 105 100 91 79 78 72 71 74 74 75 69 65 61 56 53 51
59 56 49 56 71 86 94 98 102 101 102 102 104 104 103 103 105 103 97 91 86 81 80 78 81 83 82 77 72 69 63 60 57
50 49 50 49 60 81 91 98 101 100 99 99 99 99 101 105 104 100 95 94 90 82 83 84 84 88 90 89 85 80 75 69 63
48 49 43 39 51 69 88 94 99 105 101 96 93 91 94 100 103 99 97 98 96 91 87 92 92 91 96 98 94 89 84 76 70
63 66 68 66 52 63 78 91 94 101 96 95 94 88 84 91 95 99 98 98 101 102 96 94 98 98 96 100 102 98 87 79 76
83 84 85 75 64 62 71 82 91 94 90 96 92 93 95 93 92 91 95 99 104 107 106 103 102 103 102 99 98 96 91 86 82
73 66 57 56 49 58 67 78 84 91 96 95 96 99 95 94 91 90 92 97 99 106 114 113 110 109 107 105 102 95 88 84 89
58 58 45 42 35 38 54 74 87 86 87 93 96 97 91 90 87 90 93 96 97 101 107 115 114 112 111 108 103 93 84 82 90
54 50 45 40 31 33 41 58 72 85 87 86 84 88 89 88 87 88 88 90 97 101 102 104 111 113 111 111 104 98 88 81 85
37 44 43 38 34 38 40 37 41 49 58 52 67 76 79 80 80 81 90 95 97 96 94 107 104 106 106 108 100 88 83 81 79
34 36 32 30 31 29 29 29 31 38 47 52 52 60 63 66 69 74 78 81 82 87 83 88 87 86 96 101 94 79 72 80 84
34 34 35 31 29 23 20 11 15 27 35 43 45 45 51 50 55 58 58 60 62 66 66 68 72 79 84 78 85 78 71 45 41
46 44 42 37 36 32 29 24 21 17 12 9 14 27 25 26 35 43 47 48 51 47 54 62 67 80 80 78 81 87 78 61 39
49 46 43 42 39 33 30 27 26 24 23 20 13 9 9 12 16 23 32 36 17 35 54 55 67 68 61 41 63 77 77 61 81
47 41 35 32 29 24 21 21 21 23 23 23 19 8 2 7 10 19 34 43 42 36 26 19 25 13 37 6 20 57 41 58 68
Wind_Direction_850mb
219 215 216 218 223 224 228 229 228 230 231 230 230 231 231 229 232 232 233 233 233 229 226 230 232 233 236 236 239 232 231 232 233
219 216 216 222 225 226 228 231 227 230 231 233 233 233 234 232 232 232 234 235 235 231 231 228 230 234 234 234 234 233 229 231 230
225 220 219 222 227 225 228 232 235 231 232 234 233 234 236 235 234 234 235 236 235 234 230 231 229 233 231 233 232 235 230 227 230
221 221 222 225 229 231 227 231 232 235 234 233 235 236 238 237 236 236 236 236 235 235 233 230 229 229 234 235 230 233 231 227 229
235 235 239 234 233 228 219 225 229 233 236 236 238 238 239 240 238 238 238 238 236 236 236 232 232 232 233 231 228 228 229 227 228
237 234 237 233 226 220 223 223 227 232 235 240 240 238 239 240 239 237 239 239 237 236 236 234 232 231 229 228 227 226 228 230 232
251 249 247 240 227 222 225 227 229 233 236 239 239 237 238 239 239 236 237 238 237 236 236 236 233 231 231 230 230 230 231 232 233
242 248 258 252 240 227 225 226 230 234 236 235 236 238 238 241 240 238 235 236 237 237 237 237 237 235 234 235 235 234 233 233 235
240 238 247 263 248 233 225 227 229 232 235 238 234 236 241 241 239 238 237 233 235 235 237 238 239 238 237 239 239 238 238 239 241
242 251 260 262 260 243 234 233 234 231 236 236 234 234 237 238 237 239 238 233 231 234 235 238 239 241 241 241 242 243 242 242 245
251 252 253 254 253 252 246 241 237 239 235 236 237 237 232 233 235 237 238 235 232 233 234 237 240 242 243 244 245 245 245 244 245
243 253 263 241 247 255 238 236 237 236 233 236 238 235 235 235 235 236 237 237 237 234 235 236 238 241 244 245 246 246 246 242 242
244 238 240 248 253 241 237 236 230 241 239 237 237 238 239 240 239 238 239 241 240 238 237 240 243 244 246 248 249 248 244 240 239
240 235 246 235 225 225 224 221 224 235 240 244 250 250 244 240 241 242 245 246 244 242 240 240 243 245 247 249 248 247 240 236 235
222 211 217 219 208 216 224 218 227 234 239 250 247 245 244 243 243 246 244 243 244 242 245 243 240 242 245 249 249 244 237 230 224
179 176 171 174 188 201 214 224 231 236 246 249 250 249 252 253 255 254 252 250 248 244 242 242 242 237 241 247 250 238 234 224 211
147 136 132 132 137 134 131 151 218 241 250 256 261 263 263 265 264 260 254 247 248 249 244 243 243 238 239 236 238 235 215 205 287
120 113 109 106 100 94 84 78 71 57 30 345 278 262 264 255 251 247 240 235 237 234 230 241 254 257 245 228 224 223 199 171 143
109 103 98 92 87 81 73 58 48 39 36 27 13 352 292 259 241 229 228 213 191 212 229 235 227 217 211 196 216 186 191 226 227
95 92 88 84 78 67 48 32 27 19 15 9 10 20 171 184 200 196 198 183 150 125 93 61 43 59 341 216 201 307 290 190 168